Zurück zum Katalog

THORAD DELTA 1 DEB

AktivSSO
NORAD 9984·DEBRIS·🇺🇸 United States

Gestartet Nov 15, 1974 von Vandenberg Space Force Base

Loading…

Nächste Überflüge (nächste 24 Stunden)

TLE

AktuellSource: Space-Track

Epoche: Sep 14, 2026, 19:21 UTC

1 09984U 74089EB  26257.80669464 -.00000046  00000-0  43441-5 0  9995
2 09984 102.3436 256.4891 0095149 348.5637 188.0914 12.40461268348415

Verfolge THORAD DELTA 1 DEB in Echtzeit mit AllMySat

Download on the App Store